Weather Roundup
Issued by NWS

Home | Current Version | Previous Version | Text Only | Print | Product List | Glossary On
Versions: 1 2 3 4 5 6 7 8 9 10 11 12 13 14 15 16 17 18 19 20 21 22 23 24 25 26 27 28 29 30 31 32 33 34 35 36 37 38 39 40 41 42 43 44 45 46 47 48 49 50
139
NZUS93 KARX 282059
HRRWXR

CURRENT HOURLY OBSERVATIONS ACROSS
MUCH OF THE UPPER MISSISSIPPI VALLEY
NATIONAL WEATHER SERVICE LA CROSSE WI
400 PM CDT SUN MAY 28 2017


...SOUTHEAST MINNESOTA...


CITY           SKY/WX    TMP DP  RH WIND       PRES   REMARKS
ROCHESTER      PTSUNNY   71  44  37 W23G31    29.77R
ROCHESTER/MAYO FAIR      70  42  36 W24G30    29.75S
WINONA         PTSUNNY   73  45  35 NW10G23   29.73S
AUSTIN         MOSUNNY   72  41  33 W21G26    29.77F
ALBERT LEA     MOSUNNY   73  43  33 NW16G24   29.78S
DODGE CENTER   PTSUNNY   70  39  32 NW21G29   29.77S
PRESTON        PTSUNNY   70  43  38 NW16G31   29.77S
OWATONNA       MOSUNNY   73  39  29 W22G28    29.77S
FARIBAULT      MOSUNNY   72  43  35 W15G23    29.76S
$$

...ELSEWHERE IN MINNESOTA...


CITY           SKY/WX    TMP DP  RH WIND       PRES   REMARKS
MINNEAPOLIS    PTSUNNY   73  43  33 NW17G30   29.72S
INTNL FALLS    CLOUDY    60  55  83 CALM      29.61F
DULUTH         PTSUNNY   60  48  64 W18       29.64S
RED WING       PTSUNNY   73  39  29 W16       29.71F
REDWOOD FALLS  PTSUNNY   70  42  36 W20G31    29.78S
MANKATO        NOT AVBL
WORTHINGTON    PTSUNNY   70  41  34 NW20G29   29.84F
FAIRMONT       CLOUDY    74  42  31 W21G36    29.80F
$$

...SOUTHWEST WISCONSIN...


CITY           SKY/WX    TMP DP  RH WIND       PRES   REMARKS
LA CROSSE      PTSUNNY   76  48  37 W12       29.72S
PRAIRIE DU CHI PTSUNNY   77  39  26 NW21      29.74S
BOSCOBEL       MOSUNNY   77  45  32 W18G26    29.73S
LONE ROCK      NOT AVBL
PLATTEVILLE    SUNNY     75  46  35 W18G25    29.75S
FORT MC COY    MOSUNNY   73  45  36 W18G28    29.73R
MAUSTON-NEW LI PTCLDY    73  48  40 W22G30    29.69S
VIROQUA        MOCLDY    72  46  38 SW14G21   29.75S
WIS DELLS      MOSUNNY   73  42  31 W16G26    29.69S
$$

...ELSEWHERE IN WISCONSIN...


CITY           SKY/WX    TMP DP  RH WIND       PRES   REMARKS
MILWAUKEE      MOSUNNY   75  53  46 W13       29.71F
MADISON        PTSUNNY   73  55  53 VRB5      29.69F
GREEN BAY      MOSUNNY   70  58  65 S14G20    29.64F
EAU CLAIRE     NOT AVBL
BLACK RVR FLS  FAIR      73  42  32 W13G24    29.71S
MEDFORD        MOSUNNY   66  44  43 W15G26    29.67S
WAUSAU         MOSUNNY   70  47  43 W17G30    29.64R
WIS RAPIDS     MOSUNNY   73  46  38 W22G33    29.68R
MARSHFIELD     PTSUNNY   69  44  40 W21G29    29.68R
RICE LAKE      MOSUNNY   69  45  41 W17G25    29.70F
$$

...NORTHEAST IOWA...


CITY           SKY/WX    TMP DP  RH WIND       PRES   REMARKS
WATERLOO       PTSUNNY   76  43  30 NW15G21   29.77F
DUBUQUE        SUNNY     75  46  35 NW20G26   29.77R
DECORAH        MOSUNNY   73  41  31 NW17G28   29.75F
MASON CITY     MOSUNNY   74  42  31 NW21G30   29.80F
CHARLES CITY   MOSUNNY   75  39  27 NW21G32   29.79S
OELWEIN        MOSUNNY   75  41  29 NW23G32   29.79S
$$

...ELSEWHERE IN IOWA...


CITY           SKY/WX    TMP DP  RH WIND       PRES   REMARKS
DES MOINES     PTSUNNY   80  47  31 W15       29.81F
IOWA CITY      SUNNY     79  47  32 W17G28    29.80F
FORT DODGE     MOSUNNY   75  45  33 NW13G20   29.82S
MARSHALLTOWN   PTSUNNY   76  49  38 W14G20    29.79F
CEDAR RAPIDS   MOSUNNY   76  49  38 NW22G31   29.79S
$$

...NORTHERN ILLINOIS...


CITY           SKY/WX    TMP DP  RH WIND       PRES   REMARKS
CHICAGO-OHARE  MOSUNNY   77  53  43 NW13G22   29.72S
CHICAGO-MIDWAY MOSUNNY   71  60  68 E6        29.72F
MOLINE         PTSUNNY   79  55  43 NW17      29.77S
ROCKFORD       PTSUNNY   75  54  47 W12       29.75F
PEORIA         MOSUNNY   76  52  43 NW8       29.79S
$$

NOTE: "FAIR" INDICATES FEW OR NO CLOUDS BELOW 12,000 FEET WITH NO
SIGNIFICANT WEATHER AND/OR OBSTRUCTIONS TO VISIBILITY. WIND
SPEEDS ARE IN MILES-PER-HOUR.




USA.gov is the U.S. government's official web portal to all federal, state and local government web resources and services.